SCP
4 4 5 5 6 7 9 9 8 8 6 5 4 4 3 3 2 2 2 1 2 2 2 2 2 2 1 1 1 0 0 0 0 0 0 0 0 0 0 0 0 0 0
4 4 5 5 5 6 8 8 8 7 7 5 5 4 4 3 3 2 2 1 1 2 2 2 2 2 1 1 1 0 0 0 0 0 0 0 0 0 0 0 0 0 0
4 4 4 4 4 4 5 7 7 7 6 5 5 5 5 4 4 3 2 2 1 1 1 2 2 2 1 1 1 0 0 0 0 0 0 0 0 0 0 0 0 0 0
4 4 4 3 3 3 5 6 7 6 5 4 4 5 5 5 4 3 2 2 2 2 2 2 2 2 1 1 1 1 0 0 0 0 0 0 0 0 0 0 0 0 0
4 4 4 3 3 4 6 8 9 7 4 3 3 4 5 5 4 3 2 1 1 2 2 2 2 2 1 1 1 1 1 0 0 0 0 0 0 0 0 0 0 0 0
3 3 4 4 4 5 7 10 10 7 4 2 2 2 3 3 3 2 1 1 1 1 1 1 2 1 1 1 1 1 1 1 0 0 0 0 0 0 0 0 0 0 0
2 2 2 3 4 5 7 9 10 7 3 2 1 1 2 2 1 1 1 1 0 0 0 1 1 1 1 1 0 0 0 0 0 0 0 0 0 0 0 0 0 0 0
1 1 1 2 4 6 7 8 7 5 2 1 1 1 1 1 0 0 0 0 0 0 0 0 0 0 0 0 0 0 0 0 0 0 0 0 0 0 0 0 0 0 0
1 1 1 2 5 7 7 6 5 3 1 1 1 1 0 0 0 0 0 0 0 0 0 0 0 0 0 0 0 0 0 0 0 0 0 0 0 0 0 0 0 0 0
1 1 1 3 6 7 6 5 3 2 1 1 0 0 0 0 0 0 0 0 0 0 0 0 0 0 0 0 0 0 0 0 0 0 0 0 0 0 0 0 0 0 0
1 1 2 3 5 5 4 3 2 1 1 0 0 0 0 0 0 0 0 0 0 0 0 0 0 0 0 0 0 0 0 0 0 0 0 0 0 0 0 0 0 0 0
1 1 1 2 2 2 2 1 1 0 0 0 0 0 0 0 0 0 0 0 0 0 0 0 0 0 0 0 0 0 0 0 0 0 0 0 0 0 0 0 0 0 0
0 0 0 0 0 0 0 0 0 0 0 0 0 0 0 0 0 0 0 0 0 0 0 0 0 0 0 0 0 0 0 0 0 0 0 0 0 0 0 0 0 0 0
0 0 0 0 0 0 0 0 0 0 0 0 0 0 0 0 0 0 0 0 0 0 0 0 0 0 0 0 0 0 0 0 0 0 0 0 0 0 0 0 0 0 0
0 0 0 0 0 0 0 0 0 0 0 0 0 0 0 0 0 0 0 0 0 0 0 0 0 0 0 0 0 0 0 0 0 0 0 0 0 0 0 0 0 0 0
0 0 0 0 0 0 0 0 0 0 0 0 0 0 0 0 0 0 0 0 0 0 0 0 0 0 0 0 0 0 0 0 0 0 0 0 0 0 0 0 0 0 0
0 0 0 0 0 0 0 0 0 0 0 0 0 0 0 0 0 0 0 0 0 0 0 0 0 0 0 0 0 0 0 0 0 0 0 0 0 0 0 0 0 0 0
0 0 0 0 0 0 0 0 0 0 0 0 0 0 0 0 0 0 0 0 0 0 0 0 0 0 0 0 0 0 0 0 0 0 0 0 0 0 0 0 0 0 0
0 0 0 0 0 0 0 0 0 0 0 0 0 0 0 0 0 0 0 0 0 0 0 0 0 0 0 0 0 0 0 0 0 0 0 0 0 0 0 0 0 0 0
0 0 0 0 0 0 0 0 0 0 0 0 0 0 0 0 0 0 0 0 0 0 0 0 0 0 0 0 0 0 0 0 0 0 0 0 0 0 0 0 0 0 0
0 0 0 0 0 0 0 0 0 0 0 0 0 0 0 0 0 0 0 0 0 0 0 0 0 0 0 0 0 0 0 0 0 0 0 0 0 0 0 0 0 0 0
0 0 0 0 0 0 0 0 0 0 0 0 0 0 0 0 0 0 0 0 0 0 0 0 0 0 0 0 0 0 0 0 0 0 0 0 0 0 0 0 0 0 0
0 0 0 0 0 0 0 0 0 0 0 0 0 0 0 0 0 0 0 0 0 0 0 0 0 0 0 0 0 0 0 0 0 0 0 0 0 0 0 0 0 0 0
0 0 0 0 0 0 0 0 0 0 0 0 0 0 0 0 0 0 0 0 0 0 0 0 0 0 0 0 0 0 0 0 0 0 0 0 0 0 0 0 0 0 0
0 0 0 0 0 0 0 0 0 0 0 0 0 0 0 0 0 0 0 0 0 0 0 0 0 0 0 0 0 0 0 0 0 0 0 0 0 0 0 0 0 0 0
0 0 0 0 0 0 0 0 0 0 0 0 0 0 0 0 0 0 0 0 0 0 0 0 0 0 0 0 0 0 0 0 0 0 0 0 0 0 0 0 0 0 0
Wind_Speed
7 7 7 6 6 5 4 4 2 1 2 3 4 4 4 3 3 2 1 1 2 3 4 4 5 5 5 5 6 6 7 6 6 6 6 6 6 7 5 5 5 6 6
8 8 8 7 5 4 3 3 3 2 1 2 3 3 4 3 3 2 2 3 1 1 3 4 4 5 5 6 7 7 5 4 4 5 5 4 3 4 5 4 4 5 4
8 7 7 6 6 6 6 4 4 3 0 2 3 4 4 3 2 2 2 3 3 3 1 2 3 3 4 5 6 7 7 5 2 2 5 5 5 3 3 3 4 4 4
7 7 6 6 5 5 5 4 3 3 2 2 4 6 5 4 3 3 3 4 4 4 3 3 3 3 3 4 4 4 4 6 4 2 2 3 6 6 4 2 2 3 4
7 7 6 5 5 5 4 3 3 4 3 2 3 5 6 5 5 5 6 5 5 6 5 4 4 4 4 4 5 4 4 3 4 3 3 4 3 4 5 5 3 2 2
7 7 6 6 7 6 5 4 4 4 4 4 4 5 8 8 8 7 5 5 5 5 6 6 5 5 5 5 5 6 6 5 5 4 3 3 4 4 4 5 5 3 1
6 7 7 7 7 7 6 5 6 5 5 5 5 6 8 8 8 7 6 5 5 5 5 6 6 5 6 6 7 8 7 7 7 6 4 3 3 3 4 6 5 3 1
6 7 7 7 6 6 6 6 5 5 5 5 6 7 8 7 6 7 6 6 5 5 5 7 7 7 8 8 8 8 7 7 7 7 6 5 4 4 5 5 7 5 2
6 7 6 6 6 6 5 4 5 6 6 7 8 9 9 9 9 8 8 6 6 6 7 8 8 8 8 8 8 8 7 7 8 7 7 6 5 4 4 4 5 6 5
6 7 6 7 6 6 5 5 6 7 7 7 7 8 9 9 9 8 9 8 7 7 8 8 8 8 8 8 8 8 7 9 7 6 8 7 5 5 5 4 3 4 5
6 6 6 6 6 6 6 6 7 8 7 7 8 9 9 9 9 8 8 8 8 7 8 8 8 8 8 8 8 8 8 9 8 7 9 8 7 6 5 4 5 4 4
6 6 6 6 6 7 6 7 7 8 7 7 8 9 9 9 9 9 8 8 9 8 7 8 9 9 9 8 8 9 9 9 9 8 9 8 7 7 6 5 5 4 3
6 6 6 6 6 6 6 7 7 7 7 8 9 10 9 9 9 8 8 8 9 8 8 9 9 8 8 8 8 8 8 8 8 8 8 7 8 8 6 6 6 4 4
6 6 5 5 5 5 5 6 7 7 7 8 9 9 9 8 8 7 8 8 9 9 9 9 9 8 8 8 8 8 8 8 7 7 7 7 7 6 6 6 5 5 5
7 6 5 5 5 5 5 6 6 6 6 8 8 8 7 8 8 8 9 9 9 9 9 9 9 8 7 6 7 6 7 7 7 7 6 7 8 8 6 5 4 5 5
7 6 6 5 5 5 5 6 6 6 6 7 7 7 8 8 8 8 8 9 9 8 9 9 9 9 6 9 10 7 6 6 6 6 6 6 8 9 9 8 6 6 5
8 7 6 5 5 5 6 6 6 6 7 7 7 7 7 8 8 8 8 8 8 8 8 8 8 7 7 11 11 10 6 6 5 5 4 5 6 6 5 7 8 5 4
9 8 7 5 4 5 5 5 6 6 7 6 7 6 7 7 7 7 7 6 6 6 6 6 6 6 8 11 11 10 7 6 6 5 5 5 5 5 5 6 6 5 3
8 7 6 6 5 5 5 6 6 6 6 6 6 6 6 6 6 6 6 5 5 5 5 5 6 6 6 9 9 8 5 6 6 5 5 5 5 7 8 6 5 5 4
8 7 7 7 6 5 5 6 6 6 6 6 5 5 5 6 6 5 5 4 5 5 5 5 5 5 5 8 8 8 5 5 4 4 4 5 5 6 7 5 4 3 3
8 8 8 6 6 5 6 7 6 5 5 5 5 5 5 5 5 5 4 5 5 5 5 5 4 4 4 7 9 8 4 4 3 2 2 2 4 5 5 3 1 1 3
9 8 7 6 5 5 6 6 5 4 5 5 5 4 3 3 5 5 4 5 6 6 5 4 4 3 4 5 7 8 6 5 3 1 1 2 4 4 5 2 2 3 3
8 7 7 6 5 5 6 6 4 4 5 5 5 4 4 4 4 4 5 4 4 4 3 3 3 2 3 4 9 10 9 7 3 1 2 3 5 5 4 5 6 4 2
8 7 7 7 5 5 5 5 4 5 6 5 5 5 5 6 6 5 4 4 3 4 3 3 3 2 3 3 3 4 4 6 4 3 4 5 5 4 4 4 4 2 0
7 6 7 7 6 5 5 5 5 6 6 5 5 6 6 6 6 6 5 4 2 3 5 4 4 4 2 0 2 3 2 2 2 2 3 4 4 4 4 3 3 3 2
7 7 7 6 6 6 5 5 5 6 6 5 5 4 4 4 4 5 5 9 7 7 7 7 6 3 4 3 3 3 3 2 2 3 3 2 2 2 2 2 2 2 2
Wind_Direction
75 67 66 71 82 85 97 109 118 143 142 150 149 139 140 131 106 85 63 111 184 182 188 188 169 165 170 164 151 139 131 127 126 109 96 68 61 68 69 80 86 84 84
70 62 57 57 57 73 86 97 91 74 66 167 154 133 128 116 109 108 67 63 86 181 190 183 176 171 161 154 151 144 139 147 152 133 128 121 79 59 59 70 88 89 86
77 63 61 56 46 44 39 46 61 73 103 158 125 117 111 108 108 111 84 44 48 55 74 144 153 153 157 160 158 155 152 156 160 154 143 147 156 131 66 59 76 89 89
77 67 54 52 43 35 37 32 49 81 116 141 148 151 147 141 132 119 101 73 57 62 63 72 108 119 119 131 140 145 144 147 153 130 93 121 136 141 134 85 66 91 100
63 64 52 44 35 34 39 22 38 51 71 101 135 139 126 121 118 109 94 76 60 55 61 70 79 90 97 106 111 117 120 130 141 141 127 103 93 103 129 141 140 89 69
53 55 48 44 33 27 28 24 46 42 41 74 93 123 129 127 118 107 99 83 68 55 55 70 72 79 84 88 93 94 95 95 99 98 106 129 133 140 130 135 142 133 110
56 47 40 38 32 20 21 23 40 40 44 76 95 110 115 115 115 115 106 99 85 71 61 73 77 79 80 81 83 85 83 86 91 91 90 89 101 128 126 128 131 120 97
56 52 43 35 30 25 21 27 42 45 51 77 92 96 100 98 97 95 98 95 91 87 80 78 76 76 78 80 80 81 79 80 82 81 79 79 69 88 119 132 133 121 84
57 57 48 35 32 31 32 40 52 54 55 72 87 89 91 96 99 96 92 91 91 91 80 78 78 74 75 78 83 83 81 80 77 75 74 74 69 72 79 106 132 137 136
70 63 49 38 36 37 39 47 62 69 65 70 84 93 92 94 98 96 95 94 89 86 85 81 84 82 79 80 83 83 81 82 75 77 75 68 66 69 71 84 85 103 125
75 67 57 48 42 44 50 59 67 72 71 73 81 88 89 91 93 95 95 94 90 85 85 86 84 83 81 79 82 82 79 79 74 71 75 70 69 72 63 69 78 83 102
80 74 66 56 51 47 51 61 67 75 78 81 85 85 85 87 89 89 88 88 87 82 81 82 81 82 80 77 81 84 78 80 79 74 73 69 73 65 62 71 76 81 92
89 80 75 67 61 58 59 63 69 74 78 84 88 88 88 87 86 85 86 85 84 81 76 74 76 75 78 79 81 83 82 81 80 79 78 74 75 68 64 66 67 68 74
101 92 88 85 78 73 71 72 70 72 79 82 86 87 88 89 88 85 83 82 81 79 76 72 70 71 74 77 80 83 82 79 75 75 75 74 78 80 75 71 68 77 76
115 106 101 97 91 89 85 81 77 76 82 84 84 84 85 87 87 84 80 79 79 80 78 76 69 63 62 67 78 83 88 84 77 68 66 70 76 77 77 86 83 84 83
129 119 113 109 104 102 101 93 88 84 87 90 89 88 88 87 86 85 84 81 78 77 78 74 71 64 61 71 76 85 83 84 84 77 65 61 53 56 61 74 92 108 110
137 130 124 119 114 106 101 99 97 94 92 93 94 90 90 89 87 91 86 85 83 82 79 77 76 69 60 69 76 84 88 86 88 88 76 65 49 47 51 54 60 65 95
139 133 129 124 116 109 106 104 100 98 97 95 96 96 94 92 91 91 91 90 91 91 89 83 77 70 56 63 70 80 77 79 82 89 92 83 51 43 66 67 56 42 32
137 134 131 125 120 117 115 110 103 99 100 101 98 98 99 98 96 96 98 97 96 92 89 86 80 72 46 51 68 84 80 78 71 74 80 84 69 56 72 73 61 36 2
132 130 125 120 120 121 118 112 109 107 108 109 106 102 102 102 101 103 101 96 98 98 95 84 77 76 56 52 76 96 95 89 79 59 54 64 74 65 70 77 71 38 338
130 126 123 122 123 120 114 112 110 111 113 107 102 98 98 104 106 101 99 104 100 93 85 78 64 62 60 56 74 94 104 115 103 78 38 10 42 53 57 80 106 305 310
131 128 126 123 121 120 116 113 115 119 111 107 104 103 104 110 107 101 99 105 110 106 99 87 65 41 36 48 66 82 97 115 104 88 345 313 344 3 6 13 329 347 14
134 130 128 123 119 121 123 121 126 119 112 104 97 90 81 72 84 96 103 101 104 110 112 104 90 53 32 34 54 67 77 83 82 19 325 325 332 345 348 341 348 13 42
137 134 133 130 128 126 126 132 128 117 111 104 99 96 88 77 65 65 81 101 113 117 120 120 112 83 48 33 34 44 50 48 37 6 347 354 1 5 341 339 360 34 85
138 137 136 134 135 131 129 131 123 112 106 102 99 97 95 94 80 66 55 76 79 160 146 148 143 131 111 59 90 92 60 37 7 8 18 20 20 21 17 16 16 20 28
134 133 134 135 135 132 130 128 121 117 114 110 110 111 110 105 102 97 67 43 57 80 114 133 132 113 134 138 94 70 43 16 38 65 44 23 27 30 26 28 17 9 0